Hourly Data Report for July 19, 2021

RANKIN INLET A
NUNAVUT
Current Station Operator: NAVCAN

62°48'38.000" N
92°06'53.000" W
32.30 m
2303405
71083
YRT

Download Data

Hourly Data (July 2021)
Hourly Data Report for July 19, 2021
TIME
LST
Temp Definition
°C
Dew Point Definition
°C
Rel Hum Definition
%
Precip. Amount Definition
mm

Wind Dir Definition
10's deg

Wind Spd Definition
km/h
Visibility Definition
km
Stn Press Definition
kPa
Hmdx Definition


Wind Chill Definition


Weather Definition


00:00 13.6 8.5 71   31 21 24.1 101.34     Mostly Cloudy
01:00 12.6 8.8 77   29 17 24.1 101.33     LegendNANA
02:00 12.5 8.9 78   28 17 24.1 101.32     LegendNANA
03:00 11.9 8.9 81   29 17 24.1 101.30     Mostly Cloudy
04:00 12.5 8.6 77   31 19 24.1 101.29     LegendNANA
05:00 12.8 8.5 75   32 18 24.1 101.29     LegendNANA
06:00 13.9 9.0 72   33 18 24.1 101.32     Mainly Clear
07:00 14.6 9.2 70   34 22 24.1 101.31     LegendNANA
08:00 16.0 9.4 64   32 20 24.1 101.32     LegendNANA
09:00 17.3 9.1 58   33 26 24.1 101.28     Mainly Clear
10:00 18.4 8.4 52   32 27 24.1 101.29     LegendNANA
11:00 19.5 9.1 51   30 20 24.1 101.29     LegendNANA
12:00 20.2 9.4 50   27 25 24.1 101.27     Mainly Clear
13:00 21.3 9.8 47   26 24 24.1 101.20     LegendNANA
14:00 22.1 8.8 42   30 27 24.1 101.20     LegendNANA
15:00 22.8 9.0 41   31 28 24.1 101.17     Mostly Cloudy
16:00 22.9 9.0 41   32 33 24.1 101.15     LegendNANA
17:00 22.9 9.0 41   32 33 24.1 101.10     LegendNANA
18:00 22.9 9.4 42   32 30 24.1 101.08     Mainly Clear
19:00 22.2 10.6 47   31 19 24.1 101.09     LegendNANA
20:00 20.4 11.0 54   30 15 24.1 101.08     LegendNANA
21:00 17.6 10.2 61   29 17 24.1 101.08     Clear
22:00 16.1 10.5 69   29 20 24.1 101.06     LegendNANA
23:00 14.9 10.3 74   28 19 24.1 101.07     LegendNANA

Notes on Data Quality.

Legend

  • E = Estimated
  • M = Missing
  • NA = Not Available*
  • [empty] = Indicates an unobserved value
Date modified: